EW8926 Weather Reports


Display with metric or nautical units.
time (UTC)temp
F
wind
direction
speed
MPH
gust
MPH
rain 1hr
in
rain 24hr
in
rain mn
in
humidity
%
barometer
mb
20260506204604 59 119 5.0 7.0 0.00 0.45 0.45 75 1011.1
20260506203605 59 135 3.0 7.0 0.00 0.45 0.45 75 1011.0
20260506203105 59 143 3.0 8.0 0.00 0.45 0.45 75 1011.0
20260506202104 59 135 3.0 9.0 0.00 0.45 0.45 75 1010.7
20260506201606 59 141 3.0 7.0 0.00 0.45 0.45 75 1010.7
20260506201104 59 138 5.0 6.0 0.00 0.45 0.45 74 1010.6
20260506200604 60 136 6.0 8.0 0.00 0.45 0.45 74 1010.5
20260506200104 60 143 5.0 8.0 0.00 0.45 0.45 74 1010.5
20260506194604 60 132 5.0 8.0 0.00 0.45 0.45 74 1010.4
20260506194104 60 129 5.0 10.0 0.00 0.45 0.45 73 1010.3
20260506193604 60 148 5.0 12.0 0.00 0.45 0.45 73 1010.2
20260506193104 60 117 3.0 8.0 0.00 0.45 0.45 73 1010.2
20260506192604 60 145 2.0 9.0 0.00 0.45 0.45 73 1010.0
20260506192104 60 124 4.0 7.0 0.00 0.45 0.45 73 1009.9
20260506190604 60 142 5.0 12.0 0.00 0.45 0.45 72 1009.5
20260506190106 60 151 5.0 13.0 0.00 0.45 0.45 72 1009.5
20260506185604 60 130 5.0 10.0 0.00 0.45 0.45 72 1009.4
20260506184605 60 146 5.0 10.0 0.00 0.45 0.45 72 1009.4
20260506183604 60 149 6.0 8.0 0.00 0.45 0.45 72 1009.2
20260506183106 60 135 5.0 8.0 0.00 0.45 0.45 72 1009.2
20260506182603 60 155 5.0 13.0 0.00 0.45 0.45 72 1009.1
20260506182104 60 141 5.0 7.0 0.00 0.45 0.45 72 1009.0
20260506181104 61 137 5.0 8.0 0.00 0.45 0.45 71 1008.8
20260506180604 61 148 5.0 9.0 0.00 0.46 0.45 71 1008.6
20260506180104 61 146 6.0 9.0 0.00 0.46 0.45 70 1008.6
20260506175604 61 142 6.0 8.0 0.00 0.46 0.45 70 1008.5
20260506175115 61 138 6.0 16.0 0.00 0.46 0.45 69 1008.4
20260506174604 61 130 6.0 12.0 0.00 0.46 0.45 69 1008.4
20260506174104 61 146 6.0 16.0 0.00 0.46 0.45 68 1008.2
20260506173606 62 147 7.0 12.0 0.00 0.46 0.45 68 1008.1
20260506173104 62 141 7.0 10.0 0.00 0.46 0.45 67 1008.1
20260506172606 62 133 7.0 15.0 0.00 0.46 0.45 67 1008.0
20260506172105 62 138 7.0 15.0 0.00 0.46 0.45 66 1007.9
20260506171104 63 129 6.0 16.0 0.00 0.46 0.45 65 1007.8
20260506170104 63 154 6.0 15.0 0.00 0.46 0.45 64 1007.8
20260506165606 63 152 6.0 13.0 0.00 0.46 0.45 64 1007.9
20260506164605 64 141 6.0 12.0 0.00 0.46 0.45 62 1007.9
20260506163604 64 133 6.0 14.0 0.00 0.46 0.45 61 1007.8
20260506163103 65 145 6.0 13.0 0.00 0.46 0.45 60 1007.8
20260506162604 65 150 6.0 14.0 0.00 0.46 0.45 60 1007.9
20260506162107 65 141 6.0 15.0 0.00 0.46 0.45 60 1007.9
20260506161105 65 153 6.0 14.0 0.00 0.46 0.45 57 1007.8
20260506160605 66 150 6.0 15.0 0.00 0.46 0.45 57 1007.8
20260506160104 66 127 6.0 14.0 0.00 0.46 0.45 58 1007.8
20260506155603 67 124 6.0 21.0 0.00 0.46 0.45 58 1007.9
20260506155105 67 151 5.0 9.0 0.00 0.46 0.45 58 1007.9
20260506154605 67 145 5.0 12.0 0.00 0.46 0.45 56 1007.9
20260506154107 67 133 6.0 13.0 0.00 0.46 0.45 57 1007.9
20260506153104 66 148 7.0 18.0 0.00 0.46 0.45 57 1007.9
20260506152603 66 151 7.0 12.0 0.00 0.46 0.45 57 1007.8
20260506152104 66 128 7.0 12.0 0.00 0.46 0.45 57 1007.8
20260506151104 67 145 7.0 14.0 0.00 0.46 0.45 57 1007.9
20260506145105 67 152 7.0 18.0 0.00 0.46 0.45 57 1008.0
20260506144104 68 142 6.0 17.0 0.00 0.46 0.45 57 1008.0
20260506143605 68 146 6.0 14.0 0.00 0.46 0.45 56 1008.0
20260506142604 69 129 7.0 13.0 0.00 0.46 0.45 57 1008.0
20260506142104 68 153 7.0 18.0 0.00 0.46 0.45 57 1008.0
20260506141106 69 155 6.0 15.0 0.00 0.46 0.45 57 1008.1
20260506140611 69 122 6.0 16.0 0.00 0.46 0.45 57 1008.1
20260506135604 70 167 6.0 16.0 0.00 0.46 0.45 53 1008.2
20260506135103 70 141 6.0 12.0 0.00 0.46 0.45 54 1008.3
20260506134604 69 151 7.0 14.0 0.00 0.46 0.45 53 1008.3
20260506133604 70 156 5.0 14.0 0.00 0.46 0.45 53 1008.4
20260506133115 70 149 6.0 12.0 0.00 0.46 0.45 53 1008.4
20260506132603 70 161 6.0 12.0 0.00 0.46 0.45 55 1008.3
20260506132105 70 160 6.0 12.0 0.00 0.46 0.45 55 1008.3
20260506131604 70 142 6.0 13.0 0.00 0.46 0.45 56 1008.3
20260506131103 70 161 5.0 12.0 0.00 0.46 0.45 56 1008.2
20260506130604 70 156 5.0 10.0 0.00 0.46 0.45 56 1008.2
20260506125605 71 136 5.0 10.0 0.00 0.46 0.45 56 1008.3
20260506125104 71 174 5.0 15.0 0.00 0.46 0.45 51 1008.3
20260506124605 71 131 5.0 9.0 0.00 0.46 0.45 52 1008.3
20260506124106 71 162 5.0 10.0 0.00 0.46 0.45 53 1008.3
20260506123604 71 148 5.0 9.0 0.00 0.46 0.45 57 1008.3
20260506122104 71 168 5.0 9.0 0.00 0.46 0.45 57 1008.2
20260506121609 71 172 5.0 12.0 0.00 0.46 0.45 52 1008.2
20260506121105 71 153 5.0 13.0 0.00 0.46 0.45 53 1008.2
20260506120604 71 148 5.0 10.0 0.00 0.46 0.45 53 1008.2
20260506115103 71 185 5.0 13.0 0.00 0.46 0.45 55 1008.3
20260506114607 71 132 6.0 10.0 0.00 0.46 0.45 54 1008.3
20260506114105 71 141 5.0 8.0 0.00 0.46 0.45 56 1008.4
20260506113606 71 146 5.0 17.0 0.00 0.46 0.45 55 1008.4
20260506113120 71 156 6.0 9.0 0.00 0.46 0.45 55 1008.4
20260506112604 71 153 6.0 10.0 0.00 0.46 0.45 55 1008.4
20260506112104 71 145 5.0 14.0 0.00 0.46 0.45 54 1008.4
20260506111611 71 169 5.0 12.0 0.00 0.46 0.45 56 1008.4
20260506111104 71 160 5.0 12.0 0.00 0.46 0.45 54 1008.5
20260506110604 71 148 5.0 9.0 0.00 0.46 0.45 56 1008.5
20260506110105 71 157 5.0 8.0 0.00 0.46 0.45 57 1008.5
20260506105604 71 166 5.0 13.0 0.00 0.46 0.45 54 1008.6
20260506105104 70 169 5.0 16.0 0.00 0.46 0.45 56 1008.6
20260506104104 70 161 5.0 10.0 0.00 0.46 0.45 58 1008.7
20260506103604 70 133 5.0 9.0 0.00 0.46 0.45 59 1008.7
20260506103104 70 175 5.0 9.0 0.00 0.46 0.45 59 1008.7
20260506102604 70 160 5.0 9.0 0.00 0.46 0.45 60 1008.7
20260506101105 68 163 5.0 10.0 0.00 0.46 0.45 66 1008.6
20260506100606 67 172 5.0 8.0 0.00 0.46 0.45 74 1008.6
20260506100104 67 150 3.0 14.0 0.00 0.46 0.45 74 1008.6
20260506095104 65 144 2.0 6.0 0.00 0.46 0.45 80 1008.8
20260506094604 65 314 2.0 3.0 0.00 0.46 0.45 80 1008.8
20260506093604 64 126 2.0 3.0 0.00 0.46 0.45 83 1008.8
20260506093104 64 358 2.0 5.0 0.00 0.46 0.45 84 1008.8
20260506092604 64 311 2.0 5.0 0.00 0.46 0.45 85 1008.8
20260506091604 63 309 2.0 3.0 0.00 0.46 0.45 85 1008.8
20260506091106 63 300 2.0 5.0 0.00 0.46 0.45 86 1008.8
20260506090604 63 322 2.0 6.0 0.00 0.46 0.45 85 1008.8
20260506090104 63 303 2.0 6.0 0.00 0.46 0.45 84 1008.8
20260506085104 62 76 2.0 3.0 0.00 0.46 0.45 87 1008.8
20260506084607 62 108 2.0 5.0 0.00 0.46 0.45 88 1008.8
20260506084104 61 76 2.0 5.0 0.00 0.46 0.45 88 1008.9
20260506083605 61 134 2.0 5.0 0.00 0.46 0.45 91 1009.0
20260506083104 60 193 2.0 5.0 0.00 0.46 0.45 92 1009.0
20260506082604 60 154 2.0 6.0 0.00 0.46 0.45 94 1009.0
20260506082104 59 6 2.0 5.0 0.00 0.46 0.45 97 1009.0
20260506081604 59 213 2.0 7.0 0.01 0.46 0.45 97 1009.0
20260506081104 58 315 1.0 5.0 0.02 0.46 0.45 99 1009.1
20260506080104 57 282 0.0 0.0 0.03 0.46 0.45 98 1009.1
20260506073106 54 324 1.0 0.0 0.11 0.46 0.45 98 1009.0
20260506072604 54 324 1.0 0.0 0.16 0.46 0.45 98 1009.0
20260506072104 54 325 1.0 0.0 0.18 0.46 0.45 98 1009.0
20260506071606 54 355 0.0 5.0 0.20 0.45 0.44 98 1009.0
20260506071104 54 94 2.0 2.0 0.20 0.44 0.43 98 1008.9
20260506070604 54 44 2.0 2.0 0.21 0.44 0.43 98 1008.8
20260506070107 54 44 2.0 2.0 0.21 0.43 0.42 98 1008.8
20260506061604 55 311 2.0 3.0 0.06 0.25 0.24 98 1009.2
20260506061104 55 308 1.0 5.0 0.05 0.24 0.23 98 1009.4
20260506060604 55 301 1.0 5.0 0.04 0.23 0.22 98 1009.6
20260506060104 55 329 1.0 2.0 0.03 0.22 0.21 98 1009.6
20260506050604 54 334 1.0 3.0 0.00 0.26 0.18 98 1009.3
20260506050107 54 343 1.0 3.0 0.00 0.27 0.18 98 1009.3
20260506045104 54 344 0.0 2.0 0.00 0.30 0.18 98 1009.7
20260506044604 54 64 0.0 2.0 0.00 0.32 0.18 98 1009.7
20260506044105 54 99 0.0 2.0 0.00 0.34 0.18 98 1009.9
20260506043604 54 99 0.0 2.0 0.00 0.36 0.18 98 1010.0
20260506043104 54 99 0.0 2.0 0.00 0.38 0.18 98 1010.0
20260506042605 54 99 0.0 2.0 0.00 0.40 0.18 98 1009.9
20260506042104 53 54 0.0 2.0 0.00 0.43 0.18 98 1009.9
20260506041604 53 315 0.0 1.0 0.00 0.45 0.18 98 1009.9
20260506041104 53 315 1.0 0.0 0.00 0.47 0.18 98 1010.0
20260506040603 53 315 1.0 2.0 0.00 0.49 0.18 98 1010.0
20260506035604 54 315 0.0 2.0 0.01 0.50 0.18 98 1010.0
20260506035103 54 315 2.0 2.0 0.01 0.52 0.18 98 1010.0
20260506034604 54 315 2.0 2.0 0.01 0.54 0.18 98 1010.0
20260506033606 54 313 2.0 3.0 0.02 0.56 0.18 98 1010.2
20260506033104 54 339 1.0 5.0 0.03 0.57 0.18 98 1010.2
20260506032103 54 339 1.0 2.0 0.07 0.59 0.18 98 1010.1
20260506031604 54 339 1.0 2.0 0.08 0.59 0.18 98 1010.1
20260506031107 54 340 1.0 3.0 0.10 0.61 0.18 98 1010.3
20260506030604 53 61 1.0 3.0 0.13 0.61 0.18 98 1010.5
20260506030104 53 61 2.0 3.0 0.14 0.61 0.18 98 1010.5
20260506025104 53 126 3.0 2.0 0.15 0.61 0.17 98 1010.7
20260506024605 53 126 3.0 5.0 0.15 0.62 0.17 98 1010.7
20260506024104 53 128 3.0 5.0 0.14 0.61 0.16 98 1011.1
20260506023604 53 128 2.0 5.0 0.14 0.61 0.16 98 1011.4
20260506023104 53 120 2.0 5.0 0.13 0.59 0.15 98 1011.4
20260506022604 53 128 2.0 5.0 0.11 0.58 0.13 98 1011.6
20260506021604 54 125 2.0 3.0 0.08 0.57 0.10 98 1011.7
20260506021104 54 136 1.0 6.0 0.08 0.57 0.08 98 1011.8
20260506020606 54 139 0.0 6.0 0.05 0.54 0.05 98 1011.9
20260506020104 54 107 0.0 0.0 0.04 0.54 0.04 98 1011.9
20260506015604 54 126 0.0 0.0 0.02 0.52 0.02 98 1011.8
20260506015104 54 126 0.0 0.0 0.02 0.53 0.02 98 1011.8
20260506014603 53 126 0.0 0.0 0.02 0.53 0.02 98 1011.8
20260506014104 53 126 0.0 0.0 0.02 0.53 0.02 98 1011.8
20260506013103 53 126 0.0 0.0 0.02 0.55 0.02 97 1011.8
20260506012604 53 126 0.0 0.0 0.02 0.55 0.02 98 1011.9
20260506011605 53 126 0.0 0.0 0.02 0.56 0.02 98 1012.0
20260506010104 53 126 0.0 0.0 0.00 0.56 0.00 98 1012.2
20260506005604 53 126 0.0 0.0 0.00 0.56 0.00 98 1012.1
20260506005104 53 126 0.0 0.0 0.00 0.56 0.00 98 1012.1
20260506004604 53 126 0.0 0.0 0.00 0.57 0.00 98 1012.1
20260506004104 53 126 0.0 0.0 0.00 0.57 0.00 98 1012.2
20260506003604 53 126 0.0 0.0 0.00 0.57 0.00 98 1012.2
20260506003104 53 126 0.0 0.0 0.00 0.57 0.00 98 1012.2
20260506002104 53 126 0.0 0.0 0.00 0.57 0.00 97 1012.4
20260506001604 53 126 0.0 0.0 0.00 0.57 0.00 97 1012.4
20260506001104 53 126 0.0 0.0 0.00 0.57 0.00 97 1012.6
20260506000606 53 126 0.0 0.0 0.00 0.57 0.00 97 1012.7
20260506000106 52 126 0.0 0.0 0.00 0.57 0.00 97 1012.7
20260505235104 52 126 0.0 0.0 0.00 0.57 0.00 97 1012.7
20260505234605 52 126 0.0 0.0 0.00 0.57 0.00 96 1012.7
20260505234104 53 126 0.0 0.0 0.00 0.57 0.00 96 1012.7
20260505233604 53 126 0.0 0.0 0.00 0.57 0.00 96 1012.7
20260505233105 53 126 0.0 0.0 0.00 0.57 0.00 96 1012.7
20260505232604 53 125 0.0 0.0 0.00 0.57 0.00 96 1012.8
20260505232104 53 125 0.0 0.0 0.00 0.57 0.00 96 1012.8
20260505231604 53 125 0.0 0.0 0.00 0.57 0.00 96 1012.8
20260505231105 53 125 0.0 0.0 0.00 0.57 0.00 96 1012.9
20260505230605 53 125 0.0 0.0 0.00 0.57 0.00 96 1012.9
20260505225603 54 125 0.0 0.0 0.00 0.57 0.00 96 1013.0
20260505225104 54 125 0.0 0.0 0.00 0.57 0.00 96 1013.1
20260505224104 54 125 0.0 0.0 0.00 0.57 0.00 96 1013.2
20260505223604 54 125 0.0 0.0 0.00 0.57 0.00 95 1013.2
20260505222604 54 125 0.0 0.0 0.00 0.57 0.00 95 1013.2
20260505222104 55 125 0.0 0.0 0.00 0.57 0.00 95 1013.2
20260505221103 55 125 0.0 0.0 0.00 0.57 0.00 95 1013.3
20260505220105 55 125 0.0 0.0 0.00 0.57 0.00 96 1013.4
20260505215107 55 125 0.0 0.0 0.00 0.57 0.57 95 1013.5
20260505214604 55 125 0.0 0.0 0.00 0.57 0.57 95 1013.5
20260505213604 55 125 0.0 0.0 0.00 0.57 0.57 95 1013.6
20260505213104 55 125 0.0 0.0 0.00 0.57 0.57 95 1013.6
20260505212104 55 125 0.0 0.0 0.00 0.57 0.57 95 1013.6
20260505211604 55 125 0.0 0.0 0.00 0.57 0.57 95 1013.6
20260505205103 55 125 0.0 0.0 0.00 0.57 0.57 94 1013.8